User: anonymous
Location: Turtle Rock Observatory
(36.6913°N, 81.9708°W)
Time: 08:26:49
(UTC-04:00)
Language:

Cosmos 1125 Rocket - Orbit

View from above orbital plane
View from above orbital plane
View from above satellite
View from above satellite

Ground track
Ground track

The orbit data is extracted from the following two-line orbital elements,

1 11511U 79078B   14274.48247627  .00000271  00000-0  10113-3 0  9098
2 11511 074.0381 334.0742 0014449 099.0062 000.3503 14.36456793836506
Epoch (UTC): 01 October 2014 11:34:45
Eccentricity: 0.0014449
inclination: 74.0381°
perigee height: 760 km
apogee height: 780 km
right ascension of ascending node: 334.0742°
argument of perigee: 99.0062°
revolutions per day: 14.36456793
mean anomaly at epoch: 0.3503°
orbit number at epoch: 83650

The dashed part of the orbit path shows where the satellite is in the earth's shadow,  

DLR